Location: Melbourne
(37.8666°S, 145.1333°E)
Time: 06:47:06
(UTC+11:00)

Daily predictions for brighter satellites

Satellite Brightness Start Highest point End
(mag) Time Altitude Azimuth Time Altitude Azimuth Time Altitude Azimuth
Cosmos 2242 Rocket 3.7 21:02:45 10° N 21:07:16 71° E 21:11:55 10° SSE
ATLAS 2AS CENTAUR R/B 4.1 21:01:55 10° SW 21:07:25 33° WNW 21:13:18 10° N
Cosmos 1048 Rocket 4.0 21:03:48 10° SSW 21:09:01 74° ESE 21:14:14 10° NNE
H-2A R/B 3.1 21:08:50 10° SSE 21:12:43 47° E 21:16:31 10° N
Cosmos 1862 4.5 21:09:23 10° SSE 21:12:52 27° ESE 21:16:17 10° NE
Helios 1A 3.7 21:10:24 10° SSE 21:14:18 33° E 21:18:09 10° NNE
USA 234 3.7 21:07:58 10° NNE 21:14:25 61° NW 21:20:56 10° SW
Cosmos 1892 4.1 21:16:04 10° SSW 21:19:47 41° W 21:23:26 10° NNW
ASTRO E2 3.7 21:18:30 10° WNW 21:22:07 31° N 21:25:30 11° ENE
SL-27 R/B 2.9 21:22:32 10° SSW 21:26:13 66° WNW 21:29:52 10° N
Resurs 01 Rocket 1.7 21:23:28 10° SSE 21:28:00 88° E 21:32:30 10° NNW
Cosmos 1242 Rocket 2.5 21:25:07 10° N 21:28:42 68° E 21:32:24 10° SSE
Resurs 1-3 3.6 21:27:28 10° SSE 21:31:57 81° ENE 21:36:22 10° N
Cosmos 2266 Rocket 4.5 21:28:04 10° SSW 21:34:06 64° W 21:40:10 10° N
CZ-2D R/B 3.3 21:30:38 10° SSE 21:34:37 70° ENE 21:38:32 10° N
Cosmos 2278 Rocket 2.5 21:31:17 10° NNW 21:36:57 73° WSW 21:42:41 10° SSE
Cosmos 1869 4.3 21:33:35 10° NNW 21:37:31 50° W 21:41:30 10° S
Cosmos 1939 Rocket 4.2 21:35:32 10° SE 21:38:53 23° E 21:41:00 16° NE
Cosmos 2251 Rocket 4.1 21:35:15 10° S 21:40:28 45° ESE 21:44:35 16° NE
Spot 2 Rocket 3.7 21:36:57 10° S 21:42:08 78° WSW 21:47:13 10° NNW
Cosmos 1733 Rocket 3.1 21:40:01 10° S 21:44:26 82° W 21:48:49 10° N
CZ-4B DEB 2.7 21:43:04 10° SSE 21:46:19 63° ENE 21:49:29 10° N
ATLAS CENTAUR R/B 3.9 21:45:43 10° SSE 21:48:05 14° SE 21:50:30 10° ESE
S3M 4.2 21:42:11 10° NNE 21:48:07 51° E 21:54:05 10° SSE
Timation 2 Rocket 4.5 21:43:11 10° S 21:48:57 43° ESE 21:53:16 18° NE
ALOS 3.6 21:49:04 10° S 21:53:34 43° WSW 21:58:00 10° NW
deb Chang Zheng 4 3.6 21:50:37 12° NNE 21:54:38 90° N 21:59:05 10° SSW
FENGYUN 3A 4.5 21:49:32 10° S 21:54:50 55° WSW 22:00:03 10° NNW
Envisat 3.5 21:51:44 10° SSE 21:56:35 40° E 22:00:20 16° NNE
Cosmos 1315 Rocket 3.0 21:53:33 10° S 21:57:41 60° E 22:00:20 21° NNE
Cosmos 1862 Rocket 4.3 21:54:38 10° NNW 21:58:53 54° W 22:03:12 10° S
ERS-1 Rocket 3.9 21:54:35 10° SE 21:58:56 28° E 22:00:54 22° NE
DMSP B5D2-2 4.3 21:55:46 18° NE 21:59:30 53° ESE 22:04:39 10° S
Okean 1-7 3.8 21:57:48 22° NE 21:59:44 33° E 22:03:38 10° SSE
Cosmos 1703 Rocket 3.7 21:57:32 14° N 22:01:17 56° E 22:05:44 10° SSE
CZ-4B R/B 3.8 21:59:50 19° NE 22:03:32 59° ESE 22:08:46 10° S
Cosmos 1400 Rocket 3.4 21:59:51 10° SSW 22:03:53 57° W 22:07:31 12° N
Sich 1 Rocket 3.5 21:59:26 10° S 22:03:56 75° E 22:06:59 20° NNE
Cosmos 2082 Rocket 2.4 22:00:45 10° SSW 22:06:21 58° ESE 22:09:41 24° NE
Cosmos 2369 Rocket 4.2 22:08:04 11° E 22:08:04 11° E 22:08:33 10° E
Cosmos 1833 Rocket 3.0 22:01:29 10° SSW 22:07:02 51° ESE 22:10:14 24° NE
Cosmos 1933 4.0 22:03:03 10° NNW 22:07:08 59° W 22:11:17 10° S
RESURS DK-1 4.4 22:05:01 10° SSE 22:07:35 16° SE 22:09:01 14° ESE
DELTA 2 R/B (1) 3.7 22:04:56 10° WSW 22:10:32 67° NNW 22:13:42 26° NE
USA 186 3.3 22:11:08 10° SSW 22:13:07 25° WSW 22:15:07 10° NW
OAO 3 Copernicus 4.4 22:08:27 10° W 22:13:28 62° N 22:16:08 27° ENE
Meteor 1-26 Rocket 4.1 22:08:10 10° N 22:13:42 74° E 22:19:18 10° SSE
PSLV R/B 4.5 22:12:07 10° W 22:14:56 27° NNW 22:15:29 25° NNW
Cosmos 1408 4.2 22:13:16 10° SSW 22:16:42 33° W 22:20:07 10° NNW
Cosmos 1553 Rocket 4.1 22:10:41 10° N 22:17:06 89° W 22:23:38 10° S
SJ-11-01 4.2 22:13:23 10° SSE 22:18:09 71° ENE 22:21:43 17° N
Cosmos 2297 4.1 22:14:30 10° NNW 22:20:14 69° WSW 22:26:01 10° SSE
COSMOS 2487 2.7 22:18:34 10° SSW 22:22:12 66° WNW 22:23:37 33° N
Tiangong 2 1.7 22:20:07 10° WSW 22:23:11 49° SSE 22:23:59 38° ESE
H-2A R/B 4.4 22:27:18 10° ESE 22:27:25 10° ESE 22:27:25 10° ESE
YAOGAN 11 4.3 22:33:23 10° SSE 22:37:50 53° E 22:38:37 46° NE
Meteor 2-10 Rocket 3.9 22:39:55 13° NNW 22:44:41 67° W 22:50:18 10° S
Cosmos 1709 Rocket 4.3 22:39:23 10° S 22:45:35 53° E 22:47:42 38° NE
Cosmos 1782 3.0 22:49:22 53° E 22:49:22 53° E 22:53:11 10° SSE
Lacrosse 4 Rocket 2.1 22:52:10 39° ESE 22:52:10 39° ESE 22:55:25 10° SE
Cosmos 921 Rocket 3.1 22:53:14 54° E 22:53:14 54° E 22:57:04 10° SSE
Cosmos 1371 Rocket 4.2 22:53:32 47° ENE 22:53:54 48° ENE 22:59:01 10° SSE
Meteor 1-27 Rocket 4.4 22:55:40 36° ENE 22:56:11 37° E 23:01:35 10° SSE
Meteor 1-25 Rocket 4.2 22:52:16 10° S 22:58:09 88° E 23:00:04 45° N
Cosmos 1606 3.4 23:00:40 43° SE 23:00:40 43° SE 23:03:45 10° SSE
MetOp-A 4.1 22:54:30 10° SSE 22:59:55 64° ENE 23:01:01 52° NNE
ATLAS 3B CENTAUR R/B 3.6 22:46:11 10° W 23:00:00 37° NNW 23:02:07 32° N
Cosmos 2315 Rocket 3.9 23:09:32 41° N 23:11:59 88° E 23:18:20 10° S
USA 245 4.2 23:08:59 10° SSE 23:15:10 68° E 23:16:04 59° NNE
YAOGAN 6 3.8 23:13:14 10° S 23:16:49 40° WSW 23:17:28 36° W
Cosmos 1943 Rocket 3.8 23:19:40 20° ESE 23:19:40 20° ESE 23:22:08 10° SE
NOSS 2-2 (E) 4.0 23:13:05 10° SSW 23:19:42 89° WNW 23:20:27 68° NNE
SPOT 5 2.8 23:15:36 10° SSE 23:20:43 88° WSW 23:21:12 73° NNW
Cosmos 2292 Rocket 4.2 23:14:33 10° S 23:21:04 72° W 23:22:08 56° NNW
CZ-2C R/B 3.7 23:24:45 31° ESE 23:24:52 31° ESE 23:29:29 10° S
Meteor 1-11 Rocket 3.9 23:21:05 10° S 23:26:44 55° ESE 23:27:00 54° E
Meteor 2-6 Rocket 4.2 23:25:35 54° NNW 23:26:56 80° W 23:32:48 10° S
ATLAS CENTAUR R/B 1.7 23:22:57 10° SSW 23:27:36 85° SW 23:27:36 85° SW
NOSS 2-2 (D) 4.0 23:25:34 10° SW 23:32:15 81° WNW 23:32:42 74° N
Okean 1 Rocket 4.0 23:35:43 10° S 23:38:56 41° SSE 23:38:56 41° SSE
Cosmos 2184 Rocket 4.1 23:34:00 10° S 23:40:14 59° E 23:40:39 58° E
Cosmos 2151 Rocket 4.3 23:36:22 10° SSW 23:40:32 48° W 23:40:32 48° W
BREEZE-M DEB (TANK) 4.4 23:37:47 10° WSW 23:39:06 17° W 23:39:06 17° W
Lacrosse 5 rocket 2.7 23:43:10 37° SE 23:43:10 37° SE 23:46:04 10° SE
RESURS DK-1 3.6 23:41:51 10° SW 23:44:56 38° WSW 23:44:56 38° WSW
SL-6 R/B(2) 4.4 23:42:13 10° NW 23:50:53 11° SSE 23:50:57 10° SSE
NOSS 2-2 (C) 4.4 23:42:28 10° SW 23:48:55 58° WNW 23:48:59 58° WNW
Cosmos 2082 Rocket 4.2 23:46:18 10° WSW 23:49:52 17° W 23:51:33 15° WNW
Cosmos 2369 Rocket 2.1 23:49:48 79° WNW 23:50:03 82° WSW 23:55:44 10° SSE
H-2A R/B 2.2 23:47:28 10° SSE 23:51:51 63° SE 23:51:51 63° SE
